Карточка аэропорта USRR

Внимание!
Информация на этой странице в стадии наполнения.
Если вы не увидели какой-то информации, или заметили неточность - пожалуйста сообщите нам!
Спасибо!
Команда RU-STAFF
Название аэропортаСургут
Название аэропорта (англ.)Surgut
Превышение196 ft. (59.7 m.)
Координаты61°20.502', 73°24.168'
Высота перехода700m
Эшелон переходаQFE>=742mm:FL040; QFE<=742mm:FL050
Коды ответчика5570-5577
Зона ОрВДТюмень РПИ (USTV)
Данные METARUSRR 290330Z 24003MPS 210V270 9000 -SHSN SCT040CB M04/M05 Q1023 R25/490235 NOSIG RMK OBST OBSC QFE762
Проноз погоды (TAF)USRR 290143Z 2903/0103 27003G08MPS 9999 FEW007 SCT016 TEMPO 2903/2909 5000 -SHSN BR FEW004 SCT016CB BECMG 2912/2914 36003MPS
NOTAMshow/hide NOTAM
AWOS   TABLE

Информация о ВПП

ВПП Длина ВПП (м.) Покрытие Курс ВПП Частота ILS
072780Асфальтобетон73110.5
252780Асфальтобетон253109.1

Диспетчерские позиции

Позывной Наименование органа УВД Частота
USRR_TWRСургут-Вышка120.800
USRR_APPСургут-Подход129.300
USRR_R_APPСургут - Круг120.300



Спутниковое изображение